This is the latest recevied weather packets stored in our database for station/object W5ITZ. If no packets are shown the sender has not sent any weather packets the latest 10 day(s).
| Time | Temp. | Humidity | Pressure | Rain* | Wind** | Luminosity | Snow |
|---|---|---|---|---|---|---|---|
| 1778022862 | 26.11° C | 83% | 1006.7 hPa | 0 mm | - | 62 W/m² | - |
| 1778022560 | 26.11° C | 84% | 1006.7 hPa | 0 mm | - | 110 W/m² | - |
| 1778022258 | 26.11° C | 83% | 1006.6 hPa | 0 mm | - | 115 W/m² | - |
| 1778021954 | 26.67° C | 83% | 1006.6 hPa | 0 mm | - | 103 W/m² | - |
| 1778021652 | 26.67° C | 83% | 1006.7 hPa | 0 mm | - | 116 W/m² | - |
| 1778021347 | 26.67° C | 82% | 1006.8 hPa | 0 mm | - | 158 W/m² | - |
| 1778021044 | 26.67° C | 82% | 1006.8 hPa | 0 mm | - | 161 W/m² | - |
| 1778020741 | 26.67° C | 82% | 1006.9 hPa | 0 mm | - | 142 W/m² | - |
| 1778020438 | 26.67° C | 83% | 1007 hPa | 0 mm | - | 162 W/m² | - |
| 1778020134 | 26.67° C | 82% | 1006.9 hPa | 0 mm | - | 174 W/m² | - |
| 1778019830 | 26.67° C | 83% | 1007.1 hPa | 0 mm | - | 191 W/m² | - |
| 1778019527 | 26.67° C | 82% | 1007 hPa | 0 mm | - | 158 W/m² | - |
| 1778019224 | 26.67° C | 82% | 1007.1 hPa | 0 mm | - | 200 W/m² | - |
| 1778018921 | 26.67° C | 83% | 1007.1 hPa | 0 mm | - | 211 W/m² | - |
| 1778018618 | 26.67° C | 82% | 1007.1 hPa | 0 mm | - | 211 W/m² | - |
| 1778018316 | 26.67° C | 82% | 1007.5 hPa | 0 mm | - | 216 W/m² | - |
| 1778018014 | 26.67° C | 83% | 1007.4 hPa | 0 mm | - | 267 W/m² | - |
| 1778017711 | 26.67° C | 82% | 1007.3 hPa | 0 mm | - | 185 W/m² | - |
| 1778017409 | 26.67° C | 82% | 1007.3 hPa | 0 mm | - | 118 W/m² | - |
| 1778017105 | 26.67° C | 81% | 1007.5 hPa | 0 mm | - | 124 W/m² | - |
| 1778016804 | 26.67° C | 81% | 1007.4 hPa | 0 mm | - | 133 W/m² | - |
| 1778016499 | 26.67° C | 81% | 1007.5 hPa | 0 mm | - | 191 W/m² | - |
| 1778016197 | 26.67° C | 81% | 1007.4 hPa | 0 mm | - | 178 W/m² | - |
| 1778015892 | 26.67° C | 81% | 1007.7 hPa | 0 mm | - | 97 W/m² | - |
| 1778015590 | 26.67° C | 81% | 1007.6 hPa | 0 mm | - | 180 W/m² | - |
* Rain latest hour (hover to see other rain measurements)
** Current wind speed in m/s (hover to see current wind gust speed)